Regional Weather Roundup
Issued by NWS Charleston, SC

Current Version | Previous Version | Graphics & Text | Print | Product List | Glossary On
Versions: 1 2 3 4 5 6 7 8 9 10 11 12 13 14 15 16 17 18 19 20 21 22 23 24 25 26 27 28 29 30 31 32 33 34 35 36 37 38 39 40 41 42 43 44 45 46 47 48 49 50
000
ASUS42 KCHS 241311
RWRCHS

REGIONAL WEATHER ROUNDUP
NATIONAL WEATHER SERVICE CHARLESTON SC
800 AM EST FRI FEB 24 2017

NOTE: "FAIR" INDICATES FEW OR NO CLOUDS BELOW 12,000 FEET WITH NO
SIGNIFICANT WEATHER AND/OR OBSTRUCTIONS TO VISIBILITY.

NOT ALL STATIONS ARE QUALITY CONTROLLED. USE DATA WITH CAUTION...
ESPECIALLY DEWPOINT OBSERVATIONS.

SCZ027-030-031-034>040-042>050-241400-
...SOUTHEAST SOUTH CAROLINA...

CITY           SKY/WX    TMP DP  RH WIND       PRES   REMARKS
N CHARLESTON   MOSUNNY   60  58  92 NE6       29.88R
WATERFRONT PRK   N/A     61  60  97 N6        29.87R
MOUNT PLEASANT FAIR      61  59  94 N3        29.89R FOG
JOHNS ISLAND   FAIR      63  61  94 N5        29.88R
PINOPOLIS        N/A     57  57 100 CALM      29.80R
MONCKS CORNER  FAIR      57  57 100 NE3       29.89R
SUMMERVILLE    FAIR      55  55 100 CALM      29.90R
BEAUFORT MCAS  SUNNY     62  61  96 N6        29.87S
BEAUFORT ARPT  FAIR      61  59  94 NE7       29.87S
HILTON HEAD IS SUNNY     61  61 100 N7        29.88R
WALTERBORO     MOSUNNY   55  55 100 CALM      29.90S
ALLENDALE      FAIR      59  59 100 CALM      29.89R FOG

...SOUTHERN MIDLANDS AND PEE DEE...

CITY           SKY/WX    TMP DP  RH WIND       PRES   REMARKS
GEORGETOWN     FAIR      59  57  94 N3        29.90R
KINGSTREE      FAIR      54  52  94 CALM      29.90S
ORANGEBURG     SUNNY     58  56  93 NE5       29.91R
BARNWELL       FAIR      57  57 100 CALM      29.91R
AIKEN          FAIR      52  52 100 CALM      29.94S FOG
MANNING        FAIR      55  45  67 MISG      29.91R
COLUMBIA       SUNNY     51  48  89 CALM      29.91R
SUMTER         MOSUNNY   56  56  97 NE5       29.90R
FLORENCE       SUNNY     58  57  97 NE3       29.91R
MYRTLE BEACH   SUNNY     59  57  94 NE7       29.91S
N MYRTLE BEACH SUNNY     59  59 100 NE5       29.89S

$$

GAZ063-065-086>088-099>101-113>116-118-119-134>141-150-241400-
...SOUTHEAST GEORGIA...

CITY           SKY/WX    TMP DP  RH WIND       PRES   REMARKS
SAVANNAH ARPT  SUNNY     62  58  86 N3        29.88R
HUNTER AAF     SUNNY     61  61 100 CALM      29.85R
FORT STEWART   SUNNY     60  58  95 CALM      29.85R
STATESBORO     MOSUNNY   55  32  41 CALM      29.89R FOG
SYLVANIA       MOSUNNY  N/A N/A N/A CALM      29.90R FOG
CLAXTON        FAIR     N/A N/A N/A CALM      29.89R HAZE

...CSRA...CENTRAL AND FAR SOUTHEAST GEORGIA...

CITY           SKY/WX    TMP DP  RH WIND       PRES   REMARKS
THOMSON        MOSUNNY   50  50 100 CALM      29.96R
AUGUSTA-BUSH   MOSUNNY   54  53  97 CALM      29.90S
AUGUSTA-DANIEL SUNNY     62  56  80 E3        29.91R
SWAINSBORO     FAIR      59  59 100 NE3       29.91R
VIDALIA        FOG       57  57 100 NE3       29.89R VSB 1
EASTMAN        CLOUDY    51  51  97 CALM      29.92S FOG
HAZLEHURST     FOG       57  57 100 CALM      29.88R VSB 1/4
ALMA           SUNNY     59  59 100 CALM      29.88R FOG
WAYCROSS       SUNNY     62  62 100 CALM      29.88R FOG
JESUP          FAIR      63  59  88 NE5       29.88R
BAXLEY         PTSUNNY   59  59 100 CALM      29.88R FOG
BRUNSWICK      SUNNY     61  61 100 N3        29.87R
SAINT SIMONS   SUNNY     65  62  90 N8        29.85R

$$

SCZ027-028-034-036>038-045-046-048>050-GAZ119-141-241400-
...LAKE AND SUPPLEMENTAL COASTAL OBSERVATIONS...

STATION/POSITION TIME  TEMP    WIND        PRES    WAVE   SWELL
                       AIR SEA DIR/SP/G            HT/PER HT/PER/DIR
                 (UTC) (F)     (DEG/KT/KT) (MB)    (FT/S) (FT/S/D)
WINYAH BAY       1145   61      30/  5     1012.0
LAKE MURRAY      1220   56        CALM     1012.5
ACE BASIN NERRS  1145   58      10/  1     1011.0
FORT PULASKI     1248   63 62   20/  3/  5 1011.4R
SAPELO ISLAND    1200   62      30/  5     1011.0

$$

ANZ835-935-AMZ111-154-330-350-352-354-370-450-454-472-241400-
...C-MAN AND BUOY OBSERVATIONS...

STATION/POSITION TIME  TEMP    WIND        PRES    WAVE   SWELL
                       AIR SEA DIR/SP/G            HT/PER HT/PER/DIR
                 (UTC) (F)     (DEG/KT/KT) (MB)    (FT/S) (FT/S/D)
BUOY 41004       1150   69 70   30/  8/ 10 1010.1   10/11  10/120/11
BUOY 41008       1150   63 62   40/ 12/ 14 1009.7    6/11   5/130/11
FOLLY BEACH CMAN 1200   61      10/  6/  7 1011.8R
CAPERS NEARSHORE 1208   60 60   40/ 10/ 14 1010.8F
FRIPP NEARSHORE  1208   62 61   20/  8/ 10 1010.7R


STATION/POSITION TIME  TEMP    WIND        PRES    WAVE   SWELL
                       AIR SEA DIR/SP/G            HT/PER HT/PER/DIR
                 (UTC) (F)     (DEG/KT/KT) (MB)    (FT/S) (FT/S/D)
5E ST. MARYS GA  1230      63                N/A     6/ 9   2/110/11
FRYING PAN BUOY  1250   70 72   40/ 10/ 14   N/A     8/11   8/150/11
BUOY 41025       1250   66 73  110/ 17/ 19 1013.7R   8/10   5/130/10
CAPE LOOKOUT NC  1200   61      40/  7/  7 1012.3S
BUOY 41002       1150   69 70   70/ 25/ 31 1007.1   12/10   8/130/10
BUOY 41010       NOT AVBL
ST AUGUSTINE FL  1200   65 66  360/ 13/ 15 1010.1R


$$



USA.gov is the U.S. government's official web portal to all federal, state and local government web resources and services.